Regional Weather Roundup
Issued by NWS

Home | Current Version | Previous Version | Text Only | Print | Product List | Glossary On
Versions: 1 2 3 4 5 6 7 8 9 10 11 12 13 14 15 16 17 18 19 20 21 22 23 24 25 26 27 28 29 30 31 32 33 34 35 36 37 38 39 40 41 42 43 44 45 46 47 48 49 50
000
ASUS43 KBIS 291701
RWRND

NORTH DAKOTA REGIONAL WEATHER ROUNDUP
NATIONAL WEATHER SERVICE BISMARCK ND
1100 AM CST THU JAN 29 2015

NOTE: "FAIR" INDICATES FEW OR NO CLOUDS BELOW 12,000 FEET WITH NO
SIGNIFICANT WEATHER AND/OR OBSTRUCTIONS TO VISIBILITY.


NDZ001>003-009>011-017-291800-
NORTHWEST NORTH DAKOTA

CITY           SKY/WX    TMP DP  RH WIND       PRES   REMARKS
WILLISTON      CLOUDY    24  17  74 NW7       30.50R WCI  16
MINOT          LGT SNOW  17  11  77 NW15      30.49R WCI   2
MINOT AFB      FLURRIES  17  15  92 NW13      30.49S WCI   3
$$

NDZ018>021-031>035-040>046-291800-
SOUTHWEST NORTH DAKOTA

CITY           SKY/WX    TMP DP  RH WIND       PRES   REMARKS
BISMARCK       CLOUDY    28  19  69 N7        30.49R
DICKINSON      MOSUNNY   30  21  69 W14       30.43R WCI  19
GARRISON         N/A     24  19  81 N9        30.47R WCI  14
HETTINGER ARPT MOSUNNY   29  21  72 NW14      30.47R WCI  18
$$

NDZ004>008-012>016-024-026-027-054-291800-
NORTHEAST NORTH DAKOTA

CITY           SKY/WX    TMP DP  RH WIND       PRES   REMARKS
GRAND FORKS    CLOUDY    13   5  70 N21       30.51R WCI  -5
GRND FRKS AFB  FLURRIES  14   7  73 N17       30.50R WCI  -3
DEVILS LAKE    CLOUDY    14   9  79 N13       30.47R WCI   0
$$

NDZ022-023-025-028>030-036>039-047>053-291800-
SOUTHEAST NORTH DAKOTA

CITY           SKY/WX    TMP DP  RH WIND       PRES   REMARKS
FARGO          FLURRIES  18   7  62 N25       30.47R WCI   0
JAMESTOWN      LGT SNOW  20  13  74 NW23      30.46R WCI   3
$$




USA.gov is the U.S. government's official web portal to all federal, state and local government web resources and services.